• In Germany
  • List of Countries
  • For 7 days
  • Water Temperature
  • Satellite Maps
  • Weather Map
  • Weather Widgets
  • user-avatar
    Login

    Hourly Weather Ischgl

    Today, 26 September, Wednesday

    Time Temperature Precipitation Wind Pressure Humidity
    00:00 -1°C° 0 mm 1 mps 583 mmHg 58%
    01:00 -1°C° 0 mm 1 mps 583 mmHg 53%
    02:00 -1°C° 0 mm 1 mps 583 mmHg 51%
    03:00 -3°C° 0 mm 2 mps 583 mmHg 49%
    04:00 -3°C° 0 mm 2 mps 583 mmHg 47%
    05:00 -2°C° 0 mm 2 mps 583 mmHg 46%
    06:00 -2°C° 0 mm 2 mps 584 mmHg 46%
    07:00 +1°C° 0 mm 1 mps 584 mmHg 45%
    08:00 +4°C° 0 mm 1 mps 585 mmHg 38%
    09:00 +7°C° 0 mm 1 mps 587 mmHg 32%
    10:00 +10°C° 0 mm 1 mps 588 mmHg 25%
    11:00 +11°C° 0 mm 1 mps 588 mmHg 25%
    12:00 +12°C° 0 mm 1 mps 589 mmHg 25%
    13:00 +13°C° 0 mm 2 mps 589 mmHg 25%
    14:00 +12°C° 0 mm 2 mps 589 mmHg 29%
    15:00 +12°C° 0 mm 2 mps 588 mmHg 33%
    16:00 +10°C° 0 mm 2 mps 588 mmHg 38%
    17:00 +8°C° 0 mm 1 mps 586 mmHg 49%
    18:00 +5°C° 0 mm 1 mps 585 mmHg 61%
    19:00 +2°C° 0 mm 1 mps 584 mmHg 72%
    20:00 +2°C° 0 mm 1 mps 584 mmHg 68%
    21:00 +2°C° 0 mm 1 mps 584 mmHg 63%
    22:00 +2°C° 0 mm 1 mps 584 mmHg 59%
    23:00 +2°C° 0 mm 1 mps 584 mmHg 54%

    Tomorrow, 27 September, Thursday

    Time Temperature Precipitation Wind Pressure Humidity
    00:00 +2°C° 0 mm 1 mps 584 mmHg 49%
    01:00 +2°C° 0 mm 1 mps 584 mmHg 44%
    02:00 +2°C° 0 mm 1 mps 583 mmHg 41%
    03:00 +2°C° 0 mm 1 mps 583 mmHg 38%
    04:00 +2°C° 0 mm 1 mps 583 mmHg 35%
    05:00 +3°C° 0 mm 1 mps 583 mmHg 36%
    06:00 +3°C° 0 mm 1 mps 583 mmHg 36%
    07:00 +4°C° 0 mm 1 mps 583 mmHg 37%
    08:00 +7°C° 0 mm 1 mps 585 mmHg 33%
    09:00 +10°C° 0 mm 1 mps 586 mmHg 29%
    10:00 +13°C° 0 mm 1 mps 588 mmHg 26%
    11:00 +14°C° 0 mm 1 mps 588 mmHg 26%
    12:00 +14°C° 0 mm 1 mps 587 mmHg 27%
    13:00 +15°C° 0 mm 1 mps 587 mmHg 28%
    14:00 +14°C° 0 mm 1 mps 587 mmHg 32%
    15:00 +14°C° 0 mm 1 mps 586 mmHg 36%
    16:00 +13°C° 0 mm 1 mps 586 mmHg 40%
    17:00 +10°C° 0 mm 1 mps 584 mmHg 52%
    18:00 +7°C° 0 mm 1 mps 582 mmHg 64%
    19:00 +3°C° 0 mm 0 mps 581 mmHg 76%
    20:00 +4°C° 0 mm 1 mps 581 mmHg 75%
    21:00 +4°C° 0 mm 1 mps 580 mmHg 75%
    22:00 +4°C° 0 mm 1 mps 580 mmHg 74%
    23:00 +4°C° 0 mm 1 mps 580 mmHg 73%

    Day after tomorrow, 28 September, Friday

    Time Temperature Precipitation Wind Pressure Humidity
    00:00 +3°C° 0 mm 1 mps 579 mmHg 72%
    01:00 +3°C° 0 mm 1 mps 579 mmHg 71%
    02:00 +3°C° 0 mm 1 mps 578 mmHg 68%
    03:00 +3°C° 0 mm 1 mps 578 mmHg 66%
    04:00 +3°C° 0 mm 1 mps 578 mmHg 63%
    05:00 +3°C° 0 mm 1 mps 578 mmHg 61%
    06:00 +3°C° 0 mm 1 mps 578 mmHg 58%
    07:00 +3°C° 0 mm 1 mps 578 mmHg 56%
    08:00 +6°C° 0 mm 1 mps 579 mmHg 49%
    09:00 +9°C° 0 mm 1 mps 580 mmHg 43%
    10:00 +11°C° 0 mm 1 mps 581 mmHg 36%
    11:00 +12°C° 0 mm 1 mps 581 mmHg 37%
    12:00 +13°C° 0 mm 1 mps 581 mmHg 37%
    13:00 +13°C° 0 mm 2 mps 581 mmHg 37%
    14:00 +13°C° 0 mm 2 mps 580 mmHg 42%
    15:00 +12°C° 0 mm 2 mps 580 mmHg 46%
    16:00 +12°C° 0 mm 2 mps 579 mmHg 51%
    17:00 +8°C° 0 mm 2 mps 578 mmHg 63%
    18:00 +7°C° 0 mm 1 mps 577 mmHg 76%
    19:00 +4°C° 0 mm 1 mps 576 mmHg 89%
    20:00 +4°C° 0 mm 1 mps 576 mmHg 90%
    21:00 +4°C° 0 mm 1 mps 576 mmHg 92%
    22:00 +4°C° 0 mm 1 mps 576 mmHg 94%
    23:00 +4°C° 0 mm 1 mps 576 mmHg 94%

    29 September, Saturday

    Time Temperature Precipitation Wind Pressure Humidity
    00:00 +4°C° 0 mm 1 mps 576 mmHg 94%
    01:00 +3°C° 0 mm 1 mps 576 mmHg 95%
    02:00 +3°C° 0 mm 1 mps 576 mmHg 95%
    03:00 +3°C° 0 mm 1 mps 576 mmHg 95%
    04:00 +2°C° 0 mm 2 mps 576 mmHg 95%
    05:00 +2°C° 0.2 mm 2 mps 576 mmHg 94%
    06:00 +2°C° 0.2 mm 2 mps 576 mmHg 94%
    07:00 +1°C° 0.2 mm 2 mps 576 mmHg 94%
    08:00 +2°C° 0.2 mm 2 mps 576 mmHg 91%
    09:00 +2°C° 0.2 mm 2 mps 577 mmHg 88%
    10:00 +3°C° 0.2 mm 2 mps 577 mmHg 85%
    11:00 +3°C° 0.1 mm 2 mps 577 mmHg 82%
    12:00 +3°C° 0.1 mm 2 mps 577 mmHg 80%
    13:00 +4°C° 0.1 mm 2 mps 577 mmHg 78%
    14:00 +4°C° 0 mm 2 mps 577 mmHg 77%
    15:00 +4°C° 0 mm 2 mps 577 mmHg 77%
    16:00 +3°C° 0 mm 2 mps 577 mmHg 77%
    17:00 +2°C° 0 mm 2 mps 577 mmHg 81%
    18:00 +1°C° 0 mm 2 mps 577 mmHg 86%
    19:00 +1°C° 0 mm 1 mps 576 mmHg 91%
    20:00 0°C° 0 mm 1 mps 576 mmHg 92%
    21:00 0°C° 0 mm 1 mps 576 mmHg 93%
    22:00 -1°C° 0 mm 1 mps 576 mmHg 94%
    23:00 -1°C° 0 mm 1 mps 576 mmHg 92%

    30 September, Sunday

    Time Temperature Precipitation Wind Pressure Humidity
    00:00 -1°C° 0 mm 1 mps 576 mmHg 90%
    01:00 -1°C° 0 mm 1 mps 576 mmHg 88%
    02:00 -1°C° 0 mm 1 mps 576 mmHg 88%
    03:00 -1°C° 0 mm 1 mps 575 mmHg 87%
    04:00 -1°C° 0 mm 1 mps 575 mmHg 87%
    05:00 0°C° 0 mm 1 mps 575 mmHg 85%
    06:00 0°C° 0 mm 1 mps 575 mmHg 84%
    07:00 0°C° 0 mm 1 mps 576 mmHg 83%
    08:00 +3°C° 0 mm 1 mps 577 mmHg 71%
    09:00 +6°C° 0 mm 1 mps 578 mmHg 58%
    10:00 +8°C° 0 mm 1 mps 579 mmHg 46%
    11:00 +9°C° 0 mm 1 mps 579 mmHg 44%
    12:00 +10°C° 0 mm 1 mps 579 mmHg 42%
    13:00 +10°C° 0 mm 2 mps 579 mmHg 40%
    14:00 +9°C° 0 mm 2 mps 579 mmHg 44%
    15:00 +9°C° 0 mm 2 mps 578 mmHg 49%
    16:00 +8°C° 0 mm 2 mps 578 mmHg 53%
    17:00 +7°C° 0 mm 1 mps 577 mmHg 65%
    18:00 +4°C° 0 mm 1 mps 575 mmHg 78%
    19:00 0°C° 0 mm 0 mps 574 mmHg 90%
    20:00 +1°C° 0 mm 1 mps 574 mmHg 90%
    21:00 +1°C° 0 mm 1 mps 574 mmHg 91%
    22:00 +1°C° 0 mm 1 mps 574 mmHg 91%
    23:00 +1°C° 0 mm 1 mps 574 mmHg 91%

    1 October, Monday

    Time Temperature Precipitation Wind Pressure Humidity
    00:00 +1°C° 0 mm 1 mps 573 mmHg 90%
    01:00 +1°C° 0 mm 1 mps 573 mmHg 90%
    02:00 +1°C° 0 mm 1 mps 573 mmHg 90%
    03:00 +1°C° 0 mm 1 mps 572 mmHg 90%
    04:00 0°C° 0 mm 1 mps 572 mmHg 89%
    05:00 +1°C° 0 mm 1 mps 572 mmHg 88%
    06:00 +1°C° 0 mm 1 mps 572 mmHg 87%
    07:00 +1°C° 0 mm 1 mps 572 mmHg 86%
    08:00 +3°C° 0 mm 1 mps 573 mmHg 79%
    09:00 +5°C° 0 mm 1 mps 573 mmHg 72%
    10:00 +7°C° 0 mm 1 mps 574 mmHg 65%
    11:00 +7°C° 0.1 mm 1 mps 574 mmHg 65%
    12:00 +7°C° 0.1 mm 1 mps 573 mmHg 66%
    13:00 +7°C° 0.1 mm 2 mps 573 mmHg 67%
    14:00 +6°C° 0.3 mm 2 mps 572 mmHg 71%
    15:00 +5°C° 0.3 mm 2 mps 572 mmHg 76%
    16:00 +5°C° 0.3 mm 2 mps 571 mmHg 81%
    17:00 +4°C° 1.1 mm 2 mps 571 mmHg 86%
    18:00 +3°C° 1.1 mm 2 mps 570 mmHg 91%
    19:00 +1°C° 1.1 mm 2 mps 570 mmHg 96%
    20:00 +1°C° 2.8 mm 2 mps 569 mmHg 96%
    21:00 -1°C° 2.8 mm 2 mps 569 mmHg 96%
    22:00 -2°C° 2.8 mm 2 mps 569 mmHg 96%
    23:00 -3°C° 2.3 mm 2 mps 568 mmHg 96%
    Show more